GW0175 Weather Reports


Display with metric or nautical units.
time (UTC)temp
F
wind
direction
speed
MPH
gust
MPH
rain 1hr
in
rain 24hr
in
rain mn
in
humidity
%
barometer
mb
20260905212126 99 222 3.0 16.0 0.00 0.00 0.00 28 1010.4
20260905211621 99 318 10.0 15.0 0.00 0.00 0.00 28 1010.3
20260905211117 100 18 0.0 13.0 0.00 0.00 0.00 28 1010.6
20260905210613 100 82 3.0 15.0 0.00 0.00 0.00 27 1010.6
20260905210108 99 294 5.0 20.0 0.00 0.00 0.00 28 1010.6
20260905205607 99 256 4.0 16.0 0.00 0.00 0.00 29 1010.6
20260905205107 101 215 9.0 9.0 0.00 0.00 0.00 28 1010.8
20260905204606 101 297 2.0 7.0 0.00 0.00 0.00 28 1010.9
20260905204101 100 239 6.0 11.0 0.00 0.00 0.00 29 1010.6
20260905203556 101 264 2.0 7.0 0.00 0.00 0.00 28 1010.6
20260905203052 101 190 3.0 10.0 0.00 0.00 0.00 28 1010.7
20260905202547 100 196 3.0 11.0 0.00 0.00 0.00 29 1011.0
20260905202042 100 304 0.0 7.0 0.00 0.00 0.00 29 1010.9
20260905201538 99 315 0.0 18.0 0.00 0.00 0.00 30 1011.0
20260905201037 100 252 2.0 13.0 0.00 0.00 0.00 31 1010.9
20260905200533 100 251 4.0 6.0 0.00 0.00 0.00 27 1011.3
20260905200032 101 219 4.0 4.0 0.00 0.00 0.00 27 1011.2
20260905195526 98 167 3.0 7.0 0.00 0.00 0.00 29 1011.2
20260905195022 100 199 5.0 8.0 0.00 0.00 0.00 28 1011.4
20260905194521 100 170 8.0 8.0 0.00 0.00 0.00 28 1011.4
20260905194015 100 205 5.0 5.0 0.00 0.00 0.00 28 1011.8
20260905193510 99 270 0.0 6.0 0.00 0.00 0.00 30 1011.5
20260905193006 98 194 4.0 9.0 0.00 0.00 0.00 31 1011.3
20260905192501 99 124 2.0 4.0 0.00 0.00 0.00 30 1011.5
20260905191957 100 154 4.0 4.0 0.00 0.00 0.00 29 1011.5
20260905191455 99 105 0.0 8.0 0.00 0.00 0.00 30 1011.6
20260905190954 99 54 0.0 2.0 0.00 0.00 0.00 30 1011.6
20260905190452 97 29 1.0 6.0 0.00 0.00 0.00 31 1011.9
20260905185951 98 60 4.0 9.0 0.00 0.00 0.00 31 1012.1
20260905185447 99 68 4.0 5.0 0.00 0.00 0.00 31 1012.1
20260905184945 98 39 3.0 3.0 0.00 0.00 0.00 31 1012.0
20260905184440 96 46 4.0 8.0 0.00 0.00 0.00 33 1012.2
20260905183939 95 353 4.0 8.0 0.00 0.00 0.00 34 1012.4
20260905183433 97 115 5.0 7.0 0.00 0.00 0.00 33 1012.3
20260905182929 96 110 3.0 8.0 0.00 0.00 0.00 33 1012.5
20260905182428 96 270 0.0 2.0 0.00 0.00 0.00 34 1012.3
20260905181924 96 78 0.0 3.0 0.00 0.00 0.00 34 1012.6
20260905181418 96 90 1.0 3.0 0.00 0.00 0.00 34 1012.6
20260905180917 95 344 4.0 6.0 0.00 0.00 0.00 35 1012.7
20260905180413 94 35 4.0 6.0 0.00 0.00 0.00 36 1012.9
20260905175913 95 4 2.0 3.0 0.00 0.00 0.00 35 1013.0
20260905175412 95 42 6.0 6.0 0.00 0.00 0.00 35 1013.0
20260905174907 95 151 1.0 4.0 0.00 0.00 0.00 35 1013.0
20260905174403 93 346 0.0 7.0 0.00 0.00 0.00 37 1013.2
20260905173858 94 6 1.0 3.0 0.00 0.00 0.00 35 1013.2
20260905173355 93 339 5.0 7.0 0.00 0.00 0.00 37 1013.3
20260905172849 94 30 0.0 5.0 0.00 0.00 0.00 36 1013.1
20260905172347 94 104 5.0 6.0 0.00 0.00 0.00 36 1013.3
20260905171843 93 80 2.0 5.0 0.00 0.00 0.00 37 1013.2
20260905171340 93 90 2.0 3.0 0.00 0.00 0.00 37 1013.2
20260905170836 91 357 2.0 7.0 0.00 0.00 0.00 38 1013.5
20260905170332 91 11 5.0 7.0 0.00 0.00 0.00 38 1013.3
20260905165831 92 229 2.0 4.0 0.00 0.00 0.00 37 1013.5
20260905165327 93 8 2.0 3.0 0.00 0.00 0.00 37 1013.3
20260905164826 91 39 4.0 6.0 0.00 0.00 0.00 38 1013.6
20260905164321 92 294 2.0 3.0 0.00 0.00 0.00 37 1013.1
20260905163817 90 203 2.0 3.0 0.00 0.00 0.00 39 1013.6
20260905163313 89 5 5.0 5.0 0.00 0.00 0.00 40 1013.4
20260905162809 89 14 0.0 6.0 0.00 0.00 0.00 40 1013.6
20260905162309 87 17 3.0 7.0 0.00 0.00 0.00 42 1013.4
20260905161803 89 10 5.0 5.0 0.00 0.00 0.00 41 1013.8
20260905161303 88 348 3.0 4.0 0.00 0.00 0.00 41 1013.7
20260905160801 86 345 1.0 8.0 0.00 0.00 0.00 43 1013.7
20260905160255 87 38 3.0 8.0 0.00 0.00 0.00 43 1013.6
20260905155750 86 23 0.0 5.0 0.00 0.00 0.00 43 1013.9
20260905155249 86 66 0.0 4.0 0.00 0.00 0.00 44 1013.8
20260905154743 85 45 5.0 5.0 0.00 0.00 0.00 45 1013.5
20260905154239 85 32 3.0 5.0 0.00 0.00 0.00 44 1013.7
20260905153734 85 36 3.0 4.0 0.00 0.00 0.00 45 1013.8
20260905153230 85 135 2.0 4.0 0.00 0.00 0.00 45 1013.9
20260905152724 85 36 3.0 5.0 0.00 0.00 0.00 45 1013.8
20260905152219 85 54 4.0 4.0 0.00 0.00 0.00 45 1013.7
20260905151719 83 56 4.0 7.0 0.00 0.00 0.00 46 1013.8
20260905151215 83 17 5.0 5.0 0.00 0.00 0.00 47 1014.1
20260905150710 82 354 3.0 7.0 0.00 0.00 0.00 48 1013.8
20260905150209 82 11 3.0 5.0 0.00 0.00 0.00 49 1013.9
20260905145706 82 0 2.0 5.0 0.00 0.00 0.00 49 1013.9
20260905145202 81 32 2.0 4.0 0.00 0.00 0.00 51 1014.2
20260905144700 81 17 3.0 5.0 0.00 0.00 0.00 51 1014.1
20260905144155 80 2 4.0 4.0 0.00 0.00 0.00 52 1014.3
20260905143654 80 21 3.0 5.0 0.00 0.00 0.00 52 1013.9
20260905143149 80 20 3.0 5.0 0.00 0.00 0.00 53 1013.9
20260905142647 80 4 2.0 3.0 0.00 0.00 0.00 53 1013.9
20260905142147 80 3 3.0 3.0 0.00 0.00 0.00 53 1014.2
20260905141643 80 4 2.0 2.0 0.00 0.00 0.00 53 1013.9
20260905141139 81 0 0.0 2.0 0.00 0.00 0.00 51 1014.4
20260905140633 79 342 0.0 2.0 0.00 0.00 0.00 52 1014.1
20260905140133 80 90 1.0 2.0 0.00 0.00 0.00 52 1013.9
20260905135628 79 145 0.0 2.0 0.00 0.00 0.00 52 1014.2
20260905135124 79 90 0.0 1.0 0.00 0.00 0.00 53 1014.2
20260905134618 78 90 0.0 2.0 0.00 0.00 0.00 54 1014.2
20260905134117 76 106 2.0 3.0 0.00 0.00 0.00 56 1013.7
20260905133612 76 7 1.0 2.0 0.00 0.00 0.00 60 1014.1
20260905133107 75 0 0.0 4.0 0.00 0.00 0.00 61 1013.8
20260905132607 75 0 0.0 1.0 0.00 0.00 0.00 59 1013.5
20260905132101 73 106 0.0 2.0 0.00 0.00 0.00 62 1013.6
20260905131557 71 53 0.0 2.0 0.00 0.00 0.00 63 1013.6
20260905131052 70 3 2.0 3.0 0.00 0.00 0.00 64 1013.5
20260905130551 70 8 2.0 2.0 0.00 0.00 0.00 64 1013.3
20260905130046 70 48 2.0 3.0 0.00 0.00 0.00 65 1013.2
20260905125546 70 0 1.0 1.0 0.00 0.00 0.00 66 1013.2
20260905125041 70 0 0.0 2.0 0.00 0.00 0.00 65 1013.1
20260905124538 71 0 0.0 1.0 0.00 0.00 0.00 67 1013.1
20260905124033 70 82 0.0 1.0 0.00 0.00 0.00 66 1013.1
20260905123529 71 270 0.0 0.0 0.00 0.00 0.00 66 1013.0
20260905123026 71 270 0.0 0.0 0.00 0.00 0.00 66 1013.2
20260905122525 71 270 0.0 0.0 0.00 0.00 0.00 65 1013.0
20260905122020 71 345 0.0 0.0 0.00 0.00 0.00 63 1013.0
20260905121515 71 345 0.0 2.0 0.00 0.00 0.00 62 1012.7
20260905121015 71 355 1.0 3.0 0.00 0.00 0.00 62 1012.9
20260905120509 71 20 1.0 2.0 0.00 0.00 0.00 62 1013.0
20260905120004 71 40 2.0 2.0 0.00 0.00 0.00 62 1013.0
20260905115503 70 74 0.0 1.0 0.00 0.00 0.00 62 1012.7
20260905114958 70 84 1.0 1.0 0.00 0.00 0.00 62 1013.0
20260905114458 70 160 0.0 2.0 0.00 0.00 0.00 61 1013.0
20260905113956 71 6 1.0 2.0 0.00 0.00 0.00 62 1012.9
20260905113452 70 71 1.0 2.0 0.00 0.00 0.00 62 1012.9
20260905112947 70 0 0.0 1.0 0.00 0.00 0.00 62 1012.9
20260905112442 69 82 0.0 2.0 0.00 0.00 0.00 61 1012.9
20260905111938 71 354 0.0 1.0 0.00 0.00 0.00 61 1012.7
20260905111432 71 286 0.0 1.0 0.00 0.00 0.00 61 1012.6
20260905110932 71 90 0.0 2.0 0.00 0.00 0.00 61 1012.5
20260905110426 71 90 0.0 0.0 0.00 0.00 0.00 61 1012.6
20260905105920 72 90 0.0 0.0 0.00 0.00 0.00 61 1012.6
20260905105420 71 90 0.0 0.0 0.00 0.00 0.00 61 1012.5
20260905104919 72 345 0.0 0.0 0.00 0.00 0.00 60 1012.2
20260905104415 72 279 0.0 0.0 0.00 0.00 0.00 60 1012.4
20260905103910 72 23 0.0 0.0 0.00 0.00 0.00 60 1012.3
20260905103406 72 0 0.0 3.0 0.00 0.00 0.00 59 1012.2
20260905102901 73 20 0.0 1.0 0.00 0.00 0.00 59 1012.4
20260905102358 72 261 2.0 2.0 0.00 0.00 0.00 58 1012.3
20260905101852 73 23 0.0 2.0 0.00 0.00 0.00 57 1012.3
20260905101350 73 291 0.0 1.0 0.00 0.00 0.00 56 1012.3
20260905100844 73 294 0.0 2.0 0.00 0.00 0.00 56 1012.3
20260905100336 73 345 0.0 0.0 0.00 0.00 0.00 56 1012.2
20260905095835 73 345 0.0 1.0 0.00 0.00 0.00 56 1012.1
20260905095335 74 270 0.0 3.0 0.00 0.00 0.00 57 1012.2
20260905094829 73 352 0.0 1.0 0.00 0.00 0.00 57 1012.0
20260905094325 74 0 0.0 1.0 0.00 0.00 0.00 58 1012.2
20260905093824 74 352 0.0 0.0 0.00 0.00 0.00 57 1012.2
20260905093320 73 352 0.0 0.0 0.00 0.00 0.00 57 1012.2
20260905092816 74 7 0.0 2.0 0.00 0.00 0.00 57 1012.2
20260905092316 74 0 0.0 1.0 0.00 0.00 0.00 57 1011.9
20260905091811 75 29 0.0 1.0 0.00 0.00 0.00 57 1012.1
20260905091310 75 180 0.0 0.0 0.00 0.00 0.00 56 1012.1
20260905090809 75 180 0.0 1.0 0.00 0.00 0.00 56 1012.2
20260905090305 75 90 0.0 1.0 0.00 0.00 0.00 56 1012.1
20260905085805 75 0 1.0 2.0 0.00 0.00 0.00 55 1012.2
20260905085306 75 66 0.0 1.0 0.00 0.00 0.00 54 1011.9
20260905084800 75 84 0.0 3.0 0.00 0.00 0.00 55 1012.2
20260905084259 76 84 0.0 3.0 0.00 0.00 0.00 54 1011.9
20260905083754 77 0 0.0 1.0 0.00 0.00 0.00 53 1011.8
20260905083250 77 315 0.0 3.0 0.00 0.00 0.00 53 1011.5
20260905082745 77 355 0.0 2.0 0.00 0.00 0.00 52 1011.8
20260905082241 77 26 0.0 1.0 0.00 0.00 0.00 53 1011.8
20260905081735 77 0 0.0 0.0 0.00 0.00 0.00 53 1011.8
20260905081231 77 188 0.0 1.0 0.00 0.00 0.00 54 1011.8
20260905080725 76 306 0.0 1.0 0.00 0.00 0.00 55 1012.2
20260905080225 76 8 2.0 3.0 0.00 0.00 0.00 57 1011.9
20260905075724 76 15 2.0 2.0 0.00 0.00 0.00 56 1012.0
20260905075223 78 90 0.0 1.0 0.00 0.00 0.00 53 1012.1
20260905074722 79 158 2.0 2.0 0.00 0.00 0.00 52 1011.9
20260905074218 79 225 2.0 3.0 0.00 0.00 0.00 52 1011.9
20260905073714 79 248 0.0 4.0 0.00 0.00 0.00 51 1012.1
20260905073209 79 220 2.0 3.0 0.00 0.00 0.00 52 1012.0
20260905072708 79 194 0.0 3.0 0.00 0.00 0.00 52 1012.2
20260905072204 79 279 0.0 1.0 0.00 0.00 0.00 53 1012.1
20260905071700 79 246 0.0 1.0 0.00 0.00 0.00 53 1012.2
20260905071156 79 195 1.0 3.0 0.00 0.00 0.00 53 1012.4
20260905070651 79 260 2.0 3.0 0.00 0.00 0.00 53 1012.1
20260905070147 80 257 2.0 3.0 0.00 0.00 0.00 53 1012.0
20260905065645 80 270 0.0 4.0 0.00 0.00 0.00 52 1012.3
20260905065139 80 250 3.0 3.0 0.00 0.00 0.00 51 1012.3
20260905064634 80 185 3.0 5.0 0.00 0.00 0.00 53 1012.2
20260905064125 79 212 2.0 2.0 0.00 0.00 0.00 53 1012.6
20260905063623 78 74 0.0 0.0 0.00 0.00 0.00 53 1012.3
20260905063120 79 114 0.0 2.0 0.00 0.00 0.00 53 1012.3
20260905062615 79 254 0.0 0.0 0.00 0.00 0.00 52 1012.4
20260905062114 79 206 0.0 2.0 0.00 0.00 0.00 52 1012.3
20260905061609 80 200 0.0 3.0 0.00 0.00 0.00 50 1012.1
20260905061109 81 183 3.0 4.0 0.00 0.00 0.00 46 1012.1
20260905060605 80 0 1.0 3.0 0.00 0.00 0.00 47 1012.3
20260905060101 79 6 3.0 3.0 0.00 0.00 0.00 48 1012.2
20260905055559 80 60 0.0 2.0 0.00 0.00 0.00 47 1012.3
20260905055054 80 0 0.0 1.0 0.00 0.00 0.00 46 1012.1
20260905054550 81 0 0.0 2.0 0.00 0.00 0.00 46 1011.8
20260905054045 80 0 2.0 4.0 0.00 0.00 0.00 47 1012.1
20260905053544 82 294 0.0 1.0 0.00 0.00 0.00 46 1011.9
20260905053040 82 0 0.0 0.0 0.00 0.00 0.00 47 1011.9
20260905052539 82 0 0.0 2.0 0.00 0.00 0.00 46 1011.9
20260905052034 83 241 0.0 2.0 0.00 0.00 0.00 45 1012.1
20260905051530 83 261 0.0 0.0 0.00 0.00 0.00 45 1011.8
20260905051027 84 195 0.0 0.0 0.00 0.00 0.00 44 1012.0
20260905050522 84 246 1.0 1.0 0.00 0.00 0.00 44 1012.0
20260905050019 84 270 0.0 0.0 0.00 0.00 0.00 44 1012.2
20260905045513 84 270 0.0 0.0 0.00 0.00 0.00 44 1011.9
20260905045008 84 270 0.0 0.0 0.00 0.00 0.00 44 1011.8
20260905044503 84 270 0.0 0.0 0.00 0.00 0.00 44 1012.0
20260905044002 84 270 0.0 0.0 0.00 0.00 0.00 44 1012.0
20260905043502 84 15 0.0 0.0 0.00 0.00 0.00 44 1012.0
20260905042957 84 15 0.0 2.0 0.00 0.00 0.00 44 1011.8
20260905042450 84 55 3.0 3.0 0.00 0.00 0.00 44 1011.9
20260905041946 83 54 1.0 3.0 0.00 0.00 0.00 44 1012.1
20260905041442 83 49 2.0 2.0 0.00 0.00 0.00 44 1012.2
20260905040937 83 66 0.0 1.0 0.00 0.00 0.00 45 1011.9
20260905040436 83 74 0.0 2.0 0.00 0.00 0.00 45 1012.1
20260905035935 83 120 2.0 3.0 0.00 0.00 0.00 45 1011.9
20260905035431 82 81 0.0 1.0 0.00 0.00 0.00 45 1012.0
20260905034928 82 81 0.0 3.0 0.00 0.00 0.00 45 1012.1
20260905034423 82 90 0.0 0.0 0.00 0.00 0.00 45 1012.0
20260905033922 83 90 0.0 2.0 0.00 0.00 0.00 45 1011.9
20260905033417 84 157 0.0 2.0 0.00 0.00 0.00 45 1011.9
20260905032916 84 154 0.0 2.0 0.00 0.00 0.00 45 1011.9
20260905032412 84 90 0.0 3.0 0.00 0.00 0.00 45 1011.9
20260905031907 84 114 0.0 3.0 0.00 0.00 0.00 44 1011.5
20260905031403 85 90 0.0 3.0 0.00 0.00 0.00 44 1011.5
20260905030858 84 173 4.0 4.0 0.00 0.00 0.00 45 1011.4
20260905030354 84 151 2.0 3.0 0.00 0.00 0.00 45 1011.5
20260905025852 85 90 0.0 3.0 0.00 0.00 0.00 44 1011.2
20260905025348 85 147 2.0 4.0 0.00 0.00 0.00 44 1011.2
20260905024845 87 151 2.0 5.0 0.00 0.00 0.00 41 1011.1
20260905024344 87 81 0.0 1.0 0.00 0.00 0.00 41 1010.9
20260905023840 88 279 0.0 2.0 0.00 0.00 0.00 40 1010.6
20260905023335 87 23 0.0 1.0 0.00 0.00 0.00 39 1010.4
20260905022834 87 277 0.0 2.0 0.00 0.00 0.00 40 1010.7
20260905022330 87 90 0.0 0.0 0.00 0.00 0.00 40 1010.6
20260905021824 87 90 0.0 0.0 0.00 0.00 0.00 41 1010.6
20260905021320 87 0 0.0 0.0 0.00 0.00 0.00 41 1010.6
20260905020814 87 0 0.0 0.0 0.00 0.00 0.00 41 1010.3
20260905020309 87 276 0.0 2.0 0.00 0.00 0.00 41 1010.1
20260905015808 87 90 0.0 0.0 0.00 0.00 0.00 42 1010.1
20260905015306 88 246 0.0 2.0 0.00 0.00 0.00 42 1010.1
20260905014801 88 286 0.0 2.0 0.00 0.00 0.00 42 1009.9
20260905014258 88 278 0.0 3.0 0.00 0.00 0.00 42 1010.0
20260905013752 88 315 2.0 3.0 0.00 0.00 0.00 41 1010.1
20260905013249 89 304 0.0 5.0 0.00 0.00 0.00 39 1010.2
20260905012744 89 340 0.0 1.0 0.00 0.00 0.00 38 1010.1
20260905012239 90 66 0.0 3.0 0.00 0.00 0.00 36 1010.2
20260905011736 91 232 2.0 12.0 0.00 0.00 0.00 35 1010.0
20260905011232 90 270 0.0 1.0 0.00 0.00 0.00 36 1010.1
20260905010731 90 294 0.0 0.0 0.00 0.00 0.00 35 1009.7
20260905010226 91 0 0.0 1.0 0.00 0.00 0.00 36 1009.9
20260905005724 91 348 0.0 3.0 0.00 0.00 0.00 35 1010.0
20260905005219 92 335 0.0 6.0 0.00 0.00 0.00 35 1009.8
20260905004713 93 344 0.0 0.0 0.00 0.00 0.00 33 1009.8
20260905004208 93 90 0.0 1.0 0.00 0.00 0.00 32 1009.7
20260905003703 94 71 0.0 4.0 0.00 0.00 0.00 31 1009.7
20260905003159 95 209 0.0 3.0 0.00 0.00 0.00 30 1009.8
20260905002654 95 194 0.0 3.0 0.00 0.00 0.00 30 1009.6
20260905002154 95 237 2.0 4.0 0.00 0.00 0.00 30 1009.4
20260905001649 95 174 0.0 2.0 0.00 0.00 0.00 31 1009.4
20260905001148 95 255 0.0 1.0 0.00 0.00 0.00 31 1009.2
20260905000644 95 218 2.0 3.0 0.00 0.00 0.00 31 1009.4
20260905000140 96 230 3.0 3.0 0.00 0.00 0.00 29 1009.5
20260904235639 95 184 2.0 5.0 0.00 0.00 0.00 30 1009.5
20260904235139 95 186 1.0 3.0 0.00 0.00 0.00 30 1009.2
20260904234634 96 245 5.0 5.0 0.00 0.00 0.00 30 1009.2
20260904234130 96 159 0.0 3.0 0.00 0.00 0.00 29 1009.1
20260904233626 96 182 3.0 4.0 0.00 0.00 0.00 30 1009.4
20260904233121 97 239 3.0 6.0 0.00 0.00 0.00 28 1009.4
20260904232618 98 180 3.0 5.0 0.00 0.00 0.00 26 1008.8
20260904232114 98 217 2.0 6.0 0.00 0.00 0.00 26 1009.0
20260904231609 98 180 3.0 6.0 0.00 0.00 0.00 26 1009.0
20260904231109 99 151 4.0 8.0 0.00 0.00 0.00 26 1009.0
20260904230608 99 155 6.0 11.0 0.00 0.00 0.00 26 1008.9
20260904230104 100 171 4.0 9.0 0.00 0.00 0.00 25 1008.9
20260904225601 101 189 4.0 4.0 0.00 0.00 0.00 25 1009.0
20260904225056 100 182 5.0 7.0 0.00 0.00 0.00 25 1008.9
20260904224551 100 191 4.0 8.0 0.00 0.00 0.00 25 1009.0
20260904224046 100 180 3.0 8.0 0.00 0.00 0.00 25 1009.2
20260904223545 100 166 3.0 7.0 0.00 0.00 0.00 26 1008.9
20260904223041 100 154 3.0 5.0 0.00 0.00 0.00 26 1009.2
20260904222536 99 248 0.0 7.0 0.00 0.00 0.00 27 1009.2
20260904222032 100 236 5.0 7.0 0.00 0.00 0.00 26 1009.2
20260904221526 99 163 10.0 10.0 0.00 0.00 0.00 28 1009.4
20260904221021 99 160 3.0 5.0 0.00 0.00 0.00 28 1009.1
20260904220520 97 184 6.0 8.0 0.00 0.00 0.00 29 1009.4
20260904220017 97 198 3.0 5.0 0.00 0.00 0.00 29 1009.5
20260904215516 97 216 4.0 6.0 0.00 0.00 0.00 30 1009.2
20260904215012 97 168 5.0 5.0 0.00 0.00 0.00 28 1009.6
20260904214507 98 186 1.0 4.0 0.00 0.00 0.00 28 1009.5
20260904214002 98 182 6.0 11.0 0.00 0.00 0.00 28 1009.5
20260904213501 99 176 5.0 13.0 0.00 0.00 0.00 28 1009.5
20260904212957 100 183 5.0 13.0 0.00 0.00 0.00 27 1009.5
20260904212456 100 159 9.0 13.0 0.00 0.00 0.00 28 1009.5